NOAA 16 DEB, 41667

Orbit data source: Space-Track

NOAA 16 DEB, 41667 is space debris in SSO originally from a launch on Thu, 21 Sep 2000 UTC launched from the Air Force Western Test Range (AFWTR). Debris objects in space refer to the collection of defunct objects orbiting the Earth. Examples of debris include non-operational satellites, rocket bodies, and fragments generated from explosions, collisions, or faulty payload assembly.

Loading next visibility...
Identifier
41667, 2000-055PG
Orbit
SSO
Country
Flag of USUS
Related business
Manufacturer
Unknown
Mission
Spacecraft
Bus & Motor
Unknown
Mass
Unknown
Launch date (UTC)
2000-09-21 (26 years ago)
Launch vehicle
Unknown
Launch site
Air Force Western Test Range (AFWTR)
Object type
Payload
Rocket body
Debris
Shape & HBR
Unknown shape, 0.1 m
Radar Cross Section
Small (<0.1 m²)

Expand to show TLE details & history
Last TLE update: 1 week ago

TLE from 1 week ago
0 NOAA 16 DEB
1 41667U 00055PG  26165.54190411  .00001098  00000-0  47959-3 0  9994
2 41667  98.7752 270.8665 0030036 180.1386 179.9790 14.25696801527746
Epoch: 2026-06-14T13:00Z
TLE epoch observation values (Epoch: 2026-06-14T13:00:20.515Z)
Latitude
-0.00001°
Longitude
172.93987°
Altitude
830.654 km
Speed
7.426 km/s
True Right ascension
18h 03m 27s
True Declination
0° 00' 00"
Sunlit
Object was in full shadow at epoch
Visualization orbit readout
Latitude
Unknown
Longitude
Unknown
Altitude
Unknown
Speed
Unknown
Apparent Right ascension
Unknown
Apparent Declination
Unknown
Sunlit
N/A
Visualization observer readout
Local Sidereal Time
00:14:12
Azimuth
Unknown
Elevation
Unknown
Doppler factor
Unknown
Orbital elements
Apogee altitude
824.875 km
Perigee altitude
781.735 km
Semi-major axis
7,181.442 km
Eccentricity
0.003
Inclination
98.7752°
RAAN
270.8665°
Arg. of periapsis
180.1386°
True anomaly
179.97913°
Mean anomaly
179.979°
Eccentric anomaly
179.97906°
Mean motion
3.56636 °/min
Orbital period
100.94 mins
BSTAR
0.00047959
Loading maneuver chart data...
Computing Atmospheric mass density...
Loading historical data...
Loading historical data...
Loading historical data...
Loading historical data...
Loading historical data...
Loading historical data...
Loading historical data...

Documentation

Showing up to 5 results
|